sat.trackr.live / text

‹ back to catalog

STARLINK-34334

NORAD 64273 · 2025-120T

PAYLOAD ACTIVE UNKNOWN

§ Identity

Operator
Country
US
Launch date
2025-06-04
Launch site
AFWTR
Launch vehicle
Mass (kg)
RCS (m²)

Purposes: comms

External: N2YO · Heavens-Above · Gunter

§ Orbital elements

Epoch: 2026-05-25T04:38:29.937120Z

Period
94.10 min
Inclination
53.1599°
Eccentricity
0.0001371
Mean motion
15.30214672 rev/d
Perigee alt
474.2 km
Apogee alt
476.1 km
Semi-major
6,853.3 km
B*
8.7267e-4
RAAN
121.0237°
Arg perigee
76.4171°
Mean anomaly
283.6982°
Rev number
5,563

§ Raw data

STARLINK-343341 64273U 25120T   26145.19340205  .00025588  00000+0  87267-3 0  99942 64273  53.1599 121.0237 0001371  76.4171 283.6982 15.30214672 55638

JSON: /api/v1/satellites/64273 · /tle

For live sub-satellite position, see the globe view (requires WebGL).

§ Visibility from observer

Set your observer location to see the next 7 days of passes ≥ 10°. The values pass through the URL so the page stays shareable.

No JS? Fill the form by hand. The geolocation button needs JavaScript.